Weather History for Columbus AFB, MS

Change the Weather History Date:

Saturday, March 30, 2013

  Actual Average Record
Temperature  
Mean Temperature 54 °F -  
Max Temperature 63 °F 69 °F 87 °F (1998)
Min Temperature 46 °F 47 °F 35 °F (2014)
Degree Days  
Heating Degree Days 11    
Growing Degree Days 4 (Base 50)    
Moisture  
Dew Point 54 °F    
Average Humidity 93    
Maximum Humidity 100    
Minimum Humidity 72    
Precipitation  
Precipitation 0.08 in - - ()
Sea Level Pressure  
Sea Level Pressure 30.07 in    
Wind  
Wind Speed 2 mph (SSE)    
Max Wind Speed 9 mph    
Max Gust Speed -    
Visibility 8 miles    
Events Rain    
Averages and records for this station are not official NWS values.
T = Trace of Precipitation, MM = Missing Value Source: NWS Daily Summary

Daily Weather History Graph

Daily Weather History Graph

Search for Another Location

Airport:

Trip Planner

Search our weather history database for the weather conditions in past years. The results will help you decide how hot, cold, wet, or windy it might be!

Date:

Astronomy

Mar. 30, 2013 Rise Set
Actual Time 6:43 AM CDT 7:13 PM CDT
Civil Twilight 6:18 AM CDT 7:38 PM CDT
Nautical Twilight 5:49 AM CDT 8:07 PM CDT
Astronomical Twilight 5:19 AM CDT 8:37 PM CDT
Moon 11:07 PM CDT (3/30) 8:49 AM CDT (3/30)
Length of Visible Light 13h 19m
Length of Day
12h 29m
Waning Gibbous, 86% of the Moon is Illuminated
Mar 30
Waning Gibbous
Apr 2
Last Quarter
Apr 10
New
Apr 18
First Quarter
Apr 25
Full

Hourly Weather History & Observations

Time (CDT) Temp. Dew Point Humidity Pressure Visibility Wind Dir Wind Speed Gust Speed Precip Events Conditions
12:58 AM 49.8 °F 49.3 °F 98% 30.19 in 10.0 mi Calm Calm - N/A   Overcast
1:58 AM 51.3 °F 50.7 °F 98% 30.19 in 10.0 mi Calm Calm - N/A   Overcast
2:58 AM 51.4 °F 51.3 °F 99% 30.19 in 10.0 mi Calm Calm - N/A   Overcast
3:58 AM 51.3 °F 51.1 °F 99% 30.16 in 10.0 mi NE 2.3 mph - N/A   Mostly Cloudy
4:58 AM 48.0 °F 47.8 °F 99% 30.15 in 10.0 mi Calm Calm - N/A   Clear
5:33 AM 46.4 °F 46.4 °F 100% 30.13 in 2.5 mi Calm Calm - N/A   Partly Cloudy
5:38 AM 46.4 °F 46.4 °F 100% 30.13 in 3.0 mi NE 1.2 mph - N/A   Clear
5:43 AM 46.4 °F 46.4 °F 100% 30.14 in 3.0 mi Calm Calm - N/A   Clear
5:48 AM 46.4 °F 46.4 °F 100% 30.14 in 1.2 mi Calm Calm - N/A   Clear
5:53 AM 46.4 °F 46.4 °F 100% 30.14 in 1.2 mi Calm Calm - N/A   Clear
5:58 AM 46.4 °F 46.4 °F 100% 30.15 in 2.0 mi Calm Calm - N/A   Clear
6:03 AM 46.4 °F 46.4 °F 100% 30.14 in 2.0 mi Calm Calm - N/A   Partly Cloudy
6:08 AM 46.4 °F 46.4 °F 100% 30.14 in 3.0 mi ENE 1.2 mph - N/A   Scattered Clouds
6:13 AM 46.4 °F 46.4 °F 100% 30.14 in 8.0 mi ENE 2.3 mph - N/A   Mostly Cloudy
6:58 AM 48.6 °F 48.6 °F 100% 30.15 in 10.0 mi Calm Calm - N/A   Overcast
7:33 AM 50.0 °F 50.0 °F 100% 30.15 in 10.0 mi Calm Calm - N/A   Overcast
7:58 AM 51.1 °F 51.1 °F 100% 30.16 in 10.0 mi SSW 3.5 mph - N/A   Overcast
8:58 AM 54.3 °F 49.5 °F 84% 30.15 in 10.0 mi ESE 4.6 mph - N/A   Overcast
9:58 AM 58.1 °F 49.1 °F 72% 30.14 in 10.0 mi SSE 4.6 mph - N/A   Mostly Cloudy
10:13 AM 59.0 °F 50.0 °F 72% 30.14 in 10.0 mi SSW 3.5 mph - N/A Rain Light Rain
10:42 AM 59.0 °F 51.8 °F 77% 30.13 in 10.0 mi South 6.9 mph - N/A   Mostly Cloudy
10:58 AM 59.4 °F 52.2 °F 77% 30.13 in 10.0 mi South 4.6 mph - 0.00 in   Mostly Cloudy
11:18 AM 59.0 °F 53.6 °F 82% 30.13 in 10.0 mi South 5.8 mph - N/A Rain Light Rain
11:31 AM 60.8 °F 53.6 °F 77% 30.13 in 10.0 mi South 4.6 mph - N/A   Overcast
11:46 AM 60.8 °F 53.6 °F 77% 30.12 in 10.0 mi South 3.5 mph - N/A Rain Light Rain
11:58 AM 60.1 °F 53.8 °F 80% 30.13 in 10.0 mi South 5.8 mph - 0.00 in Rain Light Rain
11:59 AM 60.8 °F 53.6 °F 77% 30.12 in 10.0 mi SSW 5.8 mph - N/A   Overcast
12:01 PM 59.0 °F 53.6 °F 82% 30.12 in 10.0 mi South 4.6 mph - N/A Rain Light Rain
12:12 PM 60.8 °F 53.6 °F 77% 30.12 in 10.0 mi Variable 2.3 mph - N/A   Mostly Cloudy
12:58 PM 62.1 °F 54.5 °F 76% 30.12 in 10.0 mi South 4.6 mph - 0.00 in   Mostly Cloudy
1:18 PM 62.6 °F 53.6 °F 72% 30.10 in 10.0 mi South 2.3 mph - N/A   Overcast
1:23 PM 62.6 °F 53.6 °F 72% 30.10 in 10.0 mi SW 5.8 mph - N/A   Overcast
1:37 PM 62.6 °F 53.6 °F 72% 30.09 in 10.0 mi SW 2.3 mph - N/A Rain Light Rain
1:58 PM 62.8 °F 55.2 °F 76% 30.10 in 10.0 mi WSW 4.6 mph - 0.00 in   Light Drizzle
1:59 PM 62.6 °F 55.4 °F 77% 30.09 in 10.0 mi WSW 3.5 mph - N/A   Partly Cloudy
2:08 PM 62.6 °F 55.4 °F 77% 30.09 in 10.0 mi SW 3.5 mph - N/A   Light Drizzle
2:58 PM 62.1 °F 56.5 °F 82% 30.07 in 10.0 mi North 4.6 mph - 0.00 in Rain Light Rain
3:28 PM 60.8 °F 59.0 °F 94% 30.05 in 10.0 mi North 5.8 mph - N/A   Clear
3:36 PM 60.8 °F 57.2 °F 88% 30.05 in 10.0 mi North 5.8 mph - N/A Rain Light Rain
3:47 PM 60.8 °F 57.2 °F 88% 30.04 in 10.0 mi NNE 4.6 mph - N/A   Scattered Clouds
3:57 PM 60.8 °F 57.2 °F 88% 30.04 in 10.0 mi NNE 5.8 mph - N/A   Mostly Cloudy
3:58 PM 60.8 °F 57.9 °F 90% 30.05 in 10.0 mi NNE 5.8 mph - 0.00 in   Mostly Cloudy
4:01 PM 60.8 °F 57.2 °F 88% 30.04 in 10.0 mi NNE 5.8 mph - N/A Rain Light Rain
4:06 PM 60.8 °F 57.2 °F 88% 30.03 in 10.0 mi NNE 4.6 mph - N/A Rain Light Rain
4:56 PM 60.8 °F 59.0 °F 94% 30.02 in 7.0 mi East 4.6 mph - N/A Rain Light Rain
4:58 PM 60.4 °F 59.2 °F 96% 30.03 in 7.0 mi East 4.6 mph - 0.02 in Rain Light Rain
5:08 PM 60.8 °F 59.0 °F 94% 30.01 in 10.0 mi East 5.8 mph - N/A   Overcast
5:58 PM 59.5 °F 58.6 °F 97% 30.02 in 10.0 mi East 3.5 mph - 0.01 in   Overcast
6:15 PM 59.0 °F 57.2 °F 94% 30.00 in 10.0 mi East 1.2 mph - N/A   Overcast
6:35 PM 59.0 °F 57.2 °F 94% 30.00 in 10.0 mi SE 5.8 mph - N/A   Mostly Cloudy
6:40 PM 59.0 °F 57.2 °F 94% 30.00 in 10.0 mi SE 5.8 mph - N/A   Overcast
6:50 PM 59.0 °F 59.0 °F 100% 30.00 in 10.0 mi SSE 6.9 mph - N/A   Overcast
6:55 PM 59.0 °F 59.0 °F 100% 30.01 in 10.0 mi SE 8.1 mph - N/A   Overcast
6:56 PM 59.0 °F 59.0 °F 100% 30.00 in 10.0 mi SE 6.9 mph - N/A Rain Light Rain
6:58 PM 59.0 °F 59.0 °F 100% 30.01 in 10.0 mi SSE 6.9 mph - N/A Rain Light Rain
7:13 PM 59.0 °F 59.0 °F 100% 30.01 in 10.0 mi South 9.2 mph - N/A Rain Light Rain
7:23 PM 59.0 °F 59.0 °F 100% 30.01 in 10.0 mi South 5.8 mph - N/A Rain Light Rain
7:49 PM 59.0 °F 59.0 °F 100% 29.99 in 10.0 mi South 2.3 mph - N/A   Overcast
7:54 PM 59.0 °F 59.0 °F 100% 29.99 in 10.0 mi South 1.2 mph - N/A   Overcast
7:58 PM 58.3 °F 58.3 °F 100% 30.01 in 10.0 mi Calm Calm - 0.01 in   Overcast
8:00 PM 57.2 °F 57.2 °F 100% 30.00 in 10.0 mi Calm Calm - N/A Rain Light Rain
8:37 PM 57.2 °F 57.2 °F 100% 30.00 in 8.0 mi Calm Calm - N/A   Overcast
8:45 PM 57.2 °F 57.2 °F 100% 30.01 in 9.0 mi Calm Calm - N/A Rain Light Rain
8:55 PM 57.2 °F 57.2 °F 100% 30.00 in 7.0 mi Calm Calm - N/A Rain Light Rain
8:58 PM 57.4 °F 57.4 °F 100% 30.01 in 7.0 mi Calm Calm - 0.02 in Rain Light Rain
9:31 PM 57.2 °F 57.2 °F 100% 30.01 in 6.0 mi SW 1.2 mph - N/A Rain Light Rain
9:43 PM 57.2 °F 57.2 °F 100% 30.01 in 7.0 mi SE 2.3 mph - N/A   Overcast
9:58 PM 57.4 °F 57.4 °F 100% 30.02 in 10.0 mi SSE 4.6 mph - 0.02 in   Overcast
10:00 PM 57.2 °F 57.2 °F 100% 30.01 in 9.0 mi SSE 2.3 mph - N/A   Light Drizzle
10:04 PM 57.2 °F 57.2 °F 100% 30.01 in 9.0 mi South 1.2 mph - N/A   Overcast
10:49 PM 57.2 °F 57.2 °F 100% 30.01 in 6.0 mi South 1.2 mph - N/A   Overcast
10:58 PM 56.5 °F 56.5 °F 100% 30.02 in 6.0 mi Calm Calm - 0.00 in   Overcast
11:08 PM 57.2 °F 57.2 °F 100% 30.01 in 5.0 mi SSE 3.5 mph - N/A   Overcast
11:13 PM 57.2 °F 57.2 °F 100% 30.01 in 5.0 mi SSE 3.5 mph - N/A   Overcast
11:18 PM 57.2 °F 57.2 °F 100% 30.00 in 5.0 mi SE 4.6 mph - N/A   Overcast
11:23 PM 57.2 °F 57.2 °F 100% 30.00 in 4.0 mi SE 3.5 mph - N/A   Overcast
11:53 PM 55.4 °F 55.4 °F 100% 30.00 in 5.0 mi South 1.2 mph - N/A   Overcast
11:58 PM 55.9 °F 55.9 °F 100% 30.01 in 4.0 mi Calm Calm - N/A   Overcast